Weather in Aksaut

Kazakhstan     47°45′41″N   82°48′21″E
temp.,
°C
wind,
m/s
gust,
m/s
humid.,
%
clouds,
%
prec.,
mm/h
press.,
hPa
HPBL,
m
18 april, sun
sun1800:00+10wnw58688 0.0 1019200
03:00+8nw36795 0.0 1020133
06:00+7wnw22815 0.0 102150
09:00+11nnw22570 0.0 1020555
12:00+15nne114416 0.0 1018904
15:00+18ene2335100 0.0 10161574
18:00+17s453640 0.0 10161316
21:00+14s344868 0.4 101652
19 april, mon
mon1900:00+12nw115858 0.7 101518
03:00+11sse115596 0.0 101421
06:00+14wsw61240100 0.1 1013308
09:00+18w91226100 0.1 10132687
12:00+19w91223100 0.1 10123167
15:00+18nw101134100 0.1 10112083
18:00+13n6453100 0.8 1012783
21:00+6nnw556192 0.1 1016383
20 april, tue
tue2000:00+3nw7866100 0.1 1017472
03:00+1nw677892 0.0 1018484
06:00−2nw6885100 2.5 1019479
09:00−3wnw7989100 1.6 1022548
12:000wnw6762100 1.9 1021794
15:00+2nw6650100 0.0 10211055
18:00+2nw6643100 0.0 10211113
21:000nw6748100 0.1 1022778
21 april, wed
wed2100:00−3wnw5854100 0.1 1023592
03:00−4wnw5855100 0.0 1022523
06:00−4wnw5752100 0.0 1022569
09:00−2wnw674499 0.0 1022704
12:00+2wnw55345 0.0 10201020
15:00+5nw552455 0.0 10181398
18:00+5nw5522100 0.0 10191614
21:00+3nw5934100 0.0 1022472
22 april, thu
thu2200:00+1nw4742100 0.0 1023527
03:00−1wsw354734 0.0 1025112
06:000w354474 0.0 1026193
09:00+2nw6655100 0.0 10281308
12:00+4nw5639100 0.1 10281964
15:00+6nw7727100 0.0 10272401
18:00+5nw6731100 0.0 10302080
21:00+2nw6847100 0.0 1033759